Regional Weather Roundup
Issued by NWS

Home | Current Version | Previous Version | Graphics & Text | Print | Product List | Glossary On
Versions: 1 2 3 4 5 6 7 8 9 10 11 12 13 14 15 16 17 18 19 20 21 22 23 24 25 26 27 28 29 30 31 32 33 34 35 36 37 38 39 40 41 42 43 44 45 46 47 48 49 50
000
ASUS45 KTFX 230310
RWRMT
MONTANA REGIONAL WEATHER ROUNDUP
NATIONAL WEATHER SERVICE GREAT FALLS MT
800 PM MST WED FEB 22 2017

NOTE: "FAIR" INDICATES FEW OR NO CLOUDS BELOW 12000 FEET WITH NO
SIGNIFICANT WEATHER AND/OR OBSTRUCTIONS TO VISIBILITY.

MTZ001>007-043-230400-
WEST OF THE DIVIDE

CITY           SKY/WX    TMP DP  RH WIND       PRES   REMARKS
KALISPELL      PTCLDY    30  23  75 W3        29.94S
MISSOULA       CLOUDY    33  28  81 N6        29.94S WCI  28
BUTTE          LGT SNOW  27  24  89 CALM      29.84S FOG
MULLAN PASS    FOG       20  19  96 NW5       29.86S VSB 3/4
ANACONDA         N/A     28  25  86 CALM      29.86F
DEER LODGE       N/A     27  21  80 NE5       29.89S
EUREKA           N/A     28  21  74 CALM      29.98R
HAMILTON         N/A     32  27  80 CALM      29.91S
LIBBY            N/A     28  27  93 CALM      29.97S
RONAN            N/A     30  24  78 CALM      29.98S
$$

MTZ008-052>055-230400-
SOUTHWEST MONTANA

CITY           SKY/WX    TMP DP  RH WIND       PRES   REMARKS
BOZEMAN        PTCLDY    30  24  78 NW5       29.87R
DILLON         CLOUDY    25  22  88 E6        29.81F WCI  18
W YELLOWSTONE  CLOUDY    18  16  93 CALM      29.79F
ENNIS          CLOUDY    25  23  93 E6        29.87F WCI  18
THREE FORKS      N/A     30  -1  26 CALM      29.87F
TWIN BRIDGES     N/A     30  22  72 N8        29.84F WCI  22
$$

MTZ009-010-012-014-046-048-049-054-230400-
EAST SLOPES AND CENTRAL MONTANA

CITY           SKY/WX    TMP DP  RH WIND       PRES   REMARKS
CUT BANK       CLOUDY    26  24  92 N5        29.96R
GREAT FALLS    CLOUDY    31  26  82 N8        29.94S WCI  23
MALMSTROM AFB  CLOUDY    31  29  92 N8        29.96R WCI  23
HELENA         CLOUDY    33  27  78 W7        29.89S WCI  27
AUGUSTA        MOCLDY    27  23  86 N12       29.93S WCI  17
BOWMANS CRNR   MOCLDY    27  23  84 N16       29.90S WCI  15
CHOTEAU          N/A     27  25  93 W5        29.97R
POWER            N/A     28  26  91 N9        29.93S WCI  19
RAYNESFORD     MOCLDY    30  27  91 CALM      29.93R
ULM            MOCLDY    29  27  92 MISG      29.94S
$$

MTZ011-013-016-021-045-047-050-051-230400-
NORTH CENTRAL MONTANA

CITY           SKY/WX    TMP DP  RH WIND       PRES   REMARKS
HAVRE          LGT SNOW  31  30  96 E5        29.97S FOG
LEWISTOWN      FLURRIES  29  27  92 W3        29.90S
N BAR RANCH    CLOUDY    28  27  93 CALM      29.92S
CHINOOK          N/A     32  28  86 CALM      29.99R
DENTON         CLOUDY    31  30  96 SE7       29.89S WCI  24
FORT BENTON      N/A     34  30  86 N3          N/A
GEYSER         MOCLDY    30  26  85 SW7       29.91S WCI  23
GRASS RANGE    LGT SNOW  29  29  99 E7        29.89S WCI  22
JUDITH GAP     SNOWSHWR  26  26  96 NW9       29.89R WCI  17
ROY            FLURRIES  27  26  96 MISG      29.92S
STANFORD       FLURRIES  28  27  94 N6        29.90S WCI  22
WINIFRED       CLOUDY    28  28 100 E14       29.91S WCI  17
$$

MTZ017>020-022>027-061-062-230400-
NORTHEAST MONTANA

CITY           SKY/WX    TMP DP  RH WIND       PRES   REMARKS
GLASGOW        CLOUDY    26  24  92 NE7       30.00R WCI  18
JORDAN           N/A     28  25  88 E5        29.98R
SIDNEY         CLOUDY    29  27  92 NW3       30.01R
WOLF POINT     CLOUDY    30  27  88 CALM      30.02R
PLENTYWOOD       N/A     34  21  60 CALM      29.99S
POPLAR           N/A     28  25  86 CALM      30.02R
$$

MTZ028>42-056>058-230400-
SOUTHCENTRAL AND SOUTHEAST MONTANA

CITY           SKY/WX    TMP DP  RH WIND       PRES   REMARKS
BAKER          FLURRIES  29  26  89 N6        29.95S WCI  23
BILLINGS       LGT SNOW  31  31 100 NE12      29.91S VSB 1   WCI  22
LIVINGSTON     CLOUDY    30  26  85 E13       29.86S WCI  20
MILES CITY     CLOUDY    31  25  78 NE7       29.98R WCI  24
BIG TIMBER     CLOUDY    30  27  86 NE5       29.91S
HARLOWTON      FLURRIES  29  26  92 N8        29.89S WCI  21
LAUREL           N/A     32  26  78 CALM      29.90R VSB 0
$$

REGIONAL REPORTS...DAKOTAS

CITY           SKY/WX    TMP DP  RH WIND       PRES   REMARKS
WILLISTON      CLOUDY    30  25  81 VRB3      30.00S
MINOT          MOCLDY    31  25  78 W8        29.96S WCI  23
DICKINSON      CLOUDY    27  23  85 N5        29.95R
BEACH            N/A    N/A N/A N/A MISG        N/A
CROSBY         CLOUDY    32  32 100 W6        30.00F WCI  26
TIOGA          MOCLDY    27  27 100 W6        29.99S WCI  20
WATFORD CITY     N/A     27  25  93 CALM      30.00R
BISMARCK       CLOUDY    34  28  79 N8        29.98R WCI  27
GRAND FORKS    CLEAR     30  23  75 NW8       29.92R WCI  22
FARGO          PTCLDY    32  29  88 N13       29.90R WCI  22
BUFFALO SD       N/A     32  30  92 NE6       29.87R WCI  26
RAPID CITY     CLOUDY    33  27  78 N18       29.88S WCI  22
$$

REGIONAL REPORTS...WYOMING/IDAHO/WASHINGTON

CITY           SKY/WX    TMP DP  RH WIND       PRES   REMARKS
GILLETTE       CLOUDY    31  27  85 NE10      29.85F WCI  22
SHERIDAN       LGT SNOW  33  31  92 VRB6      29.88S VSB 1   WCI  28
BUFFALO WY     FLURRIES  32  28  85 N7        29.85S WCI  26
CODY           CLOUDY    29  26  89 NE10      29.85R WCI  20
YELLOWSTONE LA   N/A      6   4  91 CALM      29.79F
IDAHO FALLS    CLOUDY    31  27  85 N7        29.77F WCI  24
SALMON         CLOUDY    30  25  80 CALM      29.81F
BOISE          CLOUDY    34  29  82 NW15      29.87F WCI  24
SPOKANE        PTCLDY    30  26  85 CALM      30.02S
$$

REGIONAL REPORTS...ALBERTA

CITY           SKY/WX    TMP DP  RH WIND       PRES   REMARKS
EDMONTON       MOCLDY    25  16  68 W6        30.06R WCI  18
CALGARY        LGT SNOW  27  18  69 VRB6      30.01R WCI  20
LETHBRIDGE     CLOUDY    27  25  93 NE17      30.00R WCI  14
MEDICINE HAT   FLURRIES  27  23  86 N8        30.04R WCI  18
WATERTON GATE    N/A     27  25  93 NE10        N/A  WCI  17
MILK RIVER       N/A     28  28 100 NE14        N/A  WCI  17
$$

REGIONAL REPORTS...SASKATCHEWAN

CITY           SKY/WX    TMP DP  RH WIND       PRES   REMARKS
SWIFT CURRENT  LGT SNOW  27  25  93 N12G17    29.98R WCI  16
REGINA         CLOUDY    30  28  93 N9        29.98S WCI  22
SASKATOON      FLURRIES  25  18  74 N14       30.07R WCI  13
CYPRESS HILLS    N/A     25  21  86 W3          N/A
VAL MARIE        N/A     32  25  74 SW3         N/A
ROCKGLEN         N/A     30  25  80 SW5         N/A
ASSINIBOIA       N/A     25  19  80 W3          N/A
$$



USA.gov is the U.S. government's official web portal to all federal, state and local government web resources and services.